Regional Weather Roundup
Issued by NWS

Home | Current Version | Previous Version | Graphics & Text | Print | Product List | Glossary On
Versions: 1 2 3 4 5 6 7 8 9 10 11 12 13 14 15 16 17 18 19 20 21 22 23 24 25 26 27 28 29 30 31 32 33 34 35 36 37 38 39 40 41 42 43 44 45 46 47 48 49 50
000
ASUS45 KPSR 270610
RWRAZ

ARIZONA HOURLY REGIONAL WEATHER ROUNDUP
NATIONAL WEATHER SERVICE PHOENIX AZ
1100 PM MST TUE JUL 26 2016

NOTE: FAIR INDICATES FEW OR NO CLOUDS BELOW 12,000 FEET WITH NO
SIGNIFICANT WEATHER AND/OR OBSTRUCTIONS TO VISIBILITY.

AZZ001>003-036-270700-
NORTHWEST ARIZONA

CITY           SKY/WX    TMP DP  RH WIND       PRES   REMARKS
BULLHEAD CITY  CLEAR    104  54  18 SE12      29.71S HX 102
KINGMAN        CLEAR     91  50  24 S10       29.98S
6HR MIN TEMP:  91; 6HR MAX TEMP: 103;

$$

AZZ004>008-015-016-018-270700-
NORTH CENTRAL ARIZONA

CITY           SKY/WX    TMP DP  RH WIND       PRES   REMARKS
GRAND CANYON   CLEAR     58  44  60 CALM      30.29R
6HR MIN TEMP:  58; 6HR MAX TEMP:  85;

WILLIAMS       MOCLDY    66  55  68 S7        30.36S
PRESCOTT       MOCLDY    75  57  53 S8        30.15S
6HR MIN TEMP:  75; 6HR MAX TEMP:  92;

FLAGSTAFF      CLOUDY    61  55  81 CALM      30.32S
6HR MIN TEMP:  61; 6HR MAX TEMP:  79;

PAYSON         MOCLDY    77  52  41 CALM      30.18S
PAGE           CLEAR     87  42  20 SW6       30.04R
6HR MIN TEMP:  87; 6HR MAX TEMP: 100;

$$

AZZ009>014-017-270700-
NORTHEAST ARIZONA

CITY           SKY/WX    TMP DP  RH WIND       PRES   REMARKS
WINSLOW        MOCLDY    78  51  38 SW9       30.13S
6HR MIN TEMP:  77; 6HR MAX TEMP:  93;

SAINT JOHNS    MOCLDY    71  57  61 S7        30.20R
6HR MIN TEMP:  70; 6HR MAX TEMP:  85;

WINDOW ROCK    MOCLDY    74  49  41 W5        30.29S
6HR MIN TEMP:  72; 6HR MAX TEMP:  84;

SHOW LOW       CLOUDY    68  52  56 CALM      30.27F HAZE
$$

AZZ023-270700-
GREATER PHOENIX AREA

CITY           SKY/WX    TMP DP  RH WIND       PRES   REMARKS
PHOENIX        PTCLDY   102  58  23 W9        29.75S HX 102
6HR MIN TEMP: 102; 6HR MAX TEMP: 109;

BUCKEYE        PTCLDY    93  61  33 SW7       29.78R
LUKE AFB       MOCLDY   101  60  25 SW15      29.75S HX 101
6HR MIN TEMP: 101; 6HR MAX TEMP: 110;

DEER VALLEY    PTCLDY    99  56  23 CALM      29.79R
6HR MIN TEMP:  99; 6HR MAX TEMP: 109;

SCOTTSDALE     PTCLDY   100  58  24 CALM      29.81R
6HR MIN TEMP: 100; 6HR MAX TEMP: 109;

MESA-GATEWAY   PTCLDY    97  61  30 S15G23    29.82R
$$

AZZ027-028-270700-
SOUTHWEST MARICOPA COUNTY AND PINAL COUNTY

CITY           SKY/WX    TMP DP  RH WIND       PRES   REMARKS
CASA GRANDE    MOCLDY    93  64  38 SE16      29.88R
6HR MIN TEMP:  91; 6HR MAX TEMP: 109;

GILA BEND      PTCLDY    99  61  28 S13       29.77R
6HR MIN TEMP:  99; 6HR MAX TEMP: 110;

$$

AZZ503-504-507>509-270700-
SOUTHEAST ARIZONA

CITY           SKY/WX    TMP DP  RH WIND       PRES   REMARKS
TUCSON         LGT RAIN  81  66  60 CALM      29.99F
6HR MIN TEMP:  79; 6HR MAX TEMP: 105; 6HR PCP: TRACE;

DAVIS-MONTHAN  LGT RAIN  78  69  72 S8        29.97F
6HR MIN TEMP:  75; 6HR MAX TEMP: 103; 6HR PCP:  0.37;

NOGALES        CLOUDY    73  67  81 NW5       30.08F
6HR MIN TEMP:  72; 6HR MAX TEMP:  84; 6HR PCP:  0.06;

SIERRA VISTA   PTCLDY    76  58  54 W16       30.13F
6HR MIN TEMP:  76; 6HR MAX TEMP:  92; 6HR PCP: TRACE;

DOUGLAS        MOCLDY    80  58  46 NW15G24   30.06S
6HR MIN TEMP:  78; 6HR MAX TEMP:  89;

SAFFORD        CLOUDY    87  63  44 N6        29.95S
6HR MIN TEMP:  87; 6HR MAX TEMP: 101; 6HR PCP: TRACE;

$$

AZZ020-021-025-026-031-270700-
SOUTHWEST ARIZONA

CITY           SKY/WX    TMP DP  RH WIND       PRES   REMARKS
YUMA           PTCLDY    91  65  41 S9        29.74S
6HR MIN TEMP:  91; 6HR MAX TEMP: 108;

$$

CAZ031-033-041-043-047-048-061-270700-
SOUTHERN CALIFORNIA

CITY           SKY/WX    TMP DP  RH WIND       PRES   REMARKS
DOWNTOWN L.A.  CLEAR     70  64  81 CALM      29.88S
6HR MIN TEMP:  70; 6HR MAX TEMP:  82;

L.A. AIRPORT   PTCLDY    71  64  78 W7        29.89S
6HR MIN TEMP:  70; 6HR MAX TEMP:  77;

SAN DIEGO      PTCLDY    70  65  84 NW5       29.90S
6HR MIN TEMP:  70; 6HR MAX TEMP:  76;

BURBANK        CLEAR     74  62  66 SE6       29.89S
6HR MIN TEMP:  74; 6HR MAX TEMP:  94;

ONTARIO        CLEAR     80  42  25 N5        29.91R
6HR MIN TEMP:  79; 6HR MAX TEMP:  98;

RIVERSIDE      CLEAR     81  53  37 W3        29.91R
6HR MIN TEMP:  80; 6HR MAX TEMP:  98;

PALM SPRINGS   CLEAR     98  53  22 NW13      29.76S
6HR MIN TEMP:  98; 6HR MAX TEMP: 111;

EL CENTRO NAS  CLEAR     99  53  21 SW9       29.73R
6HR MIN TEMP:  98; 6HR MAX TEMP: 111;

IMPERIAL       CLEAR     99  59  26 SW8       29.71R
6HR MIN TEMP:  99; 6HR MAX TEMP: 112;

BLYTHE         CLEAR    104  59  22 W13       29.73R HX 104
6HR MIN TEMP: 103; 6HR MAX TEMP: 113;

NEEDLES          N/A    106  55  18 SW9       29.73S HX 105
6HR MIN TEMP: 106; 6HR MAX TEMP: 116;

$$

NVZ020-UTZ003-270700-
SOUTHERN NEVADA-UTAH

CITY           SKY/WX    TMP DP  RH WIND       PRES   REMARKS
LAS VEGAS      PTCLDY   101  40  12 SW7       29.78S
6HR MIN TEMP: 101; 6HR MAX TEMP: 111;

SALT LAKE CITY CLEAR     81  36  19 VRB3      30.03S
6HR MIN TEMP:  81; 6HR MAX TEMP: 101;

$$

NMZ009-TXZ055-270700-
NEW MEXICO-WEST TEXAS

CITY           SKY/WX    TMP DP  RH WIND       PRES   REMARKS
ALBUQUERQUE    CLOUDY    78  54  43 E9        30.21S
6HR MIN TEMP:  75; 6HR MAX TEMP:  93;

EL PASO        MOCLDY    81  60  48 E7        30.06S
6HR MIN TEMP:  81; 6HR MAX TEMP:  91; 6HR PCP: TRACE;

$$


........................KEY........................
SKY/WX - SKY CONDITION/WEATHER
TMP    - TEMPERATURE IN FAHRENHEIT
DP     - DEW POINT IN FAHRENHEIT
RH     - RELATIVE HUMIDITY IN PERCENT
WIND   - DIRECTION AND SPEED IN MILES PER HOUR (MPH)
VRB    - VARIABLE WIND DIRECTION
PRES   - MEAN SEA LEVEL PRESSURE IN INCHES OF MERCURY
         F - FALLING PRESSURE   R - RISING PRESSURE
         S - STEADY PRESSURE
VSB    - VISIBILITY IN MILES
HX     - HEAT INDEX IN FAHRENHEIT
WCI    - WIND CHILL INDEX IN FAHRENHEIT
TC     - TEMPERATURE IN CELSIUS WHICH IS ALSO KNOWN AS
         TEMPERATURE IN CENTIGRADE
AFB    - AIR FORCE BASE
         LUKE AFB IS LUKE AIR FORCE BASE
         DAVIS-MONTHAN IS DAVIS-MONTHAN AIR FORCE BASE
NAS    - NAVAL AIR STATION
         EL CENTRO NAS IS EL CENTRO NAVAL AIR STATION
N/A    - NOT AVAILABLE




USA.gov is the U.S. government's official web portal to all federal, state and local government web resources and services.